Hourly Data Report for April 01, 2020

NANAIMO A
BRITISH COLUMBIA
Current Station Operator: NAVCAN

49°03'16.000" N
123°52'12.000" W
28.00 m
1025365
YCD

Download Data

Hourly Data (April 2020)
Hourly Data Report for April 1, 2020
TIME
LST
Temp Definition
°C
Dew Point Definition
°C
Rel Hum Definition
%
Precip. Amount Definition
mm

Wind Dir Definition
10's deg

Wind Spd Definition
km/h
Visibility Definition
km
Stn Press Definition
kPa
Hmdx Definition


Wind Chill Definition


Weather Definition


00:00 3.2 2.4 94 LegendMM 16 5 LegendMM 101.34     LegendNANA
01:00 3.2 1.8 91 LegendMM 23 7 LegendMM 101.37     LegendNANA
02:00 2.0 1.4 96 LegendMM 31 3 LegendMM 101.39     LegendNANA
03:00 2.8 1.5 91 LegendMM 28 8 LegendMM 101.41     LegendNANA
04:00 3.2 2.3 94 LegendMM 24 5 LegendMM 101.46     LegendNANA
05:00 2.5 1.9 95 LegendMM 25 9 LegendMM 101.50     LegendNANA
06:00 2.5 2.1 97 LegendMM 25 5 LegendMM 101.55     LegendNANA
07:00 2.8 2.4 97 LegendMM 30 7 LegendMM 101.62     LegendNANA
08:00 3.1 2.6 96 LegendMM 28 5 LegendMM 101.65     LegendNANA
09:00 3.7 2.9 94 LegendMM 27 8 LegendMM 101.67     LegendNANA
10:00 4.2 2.5 89 LegendMM 29 8 LegendMM 101.71     LegendNANA
11:00 5.1 2.8 85 LegendMM 34 8 LegendMM 101.71     LegendNANA
12:00 6.0 3.1 82 LegendMM 9 4 LegendMM 101.69     LegendNANA
13:00 7.6 1.0 63 LegendMM 27 5 LegendMM 101.65     LegendNANA
14:00 8.2 2.6 68 LegendMM 10 14 LegendMM 101.63     LegendNANA
15:00 7.6 1.5 65 LegendMM 6 10 LegendMM 101.63     LegendNANA
16:00 8.8 0.6 57 LegendMM 25 3 LegendMM 101.61     LegendNANA
17:00 7.5 0.6 61 LegendMM 10 7 LegendMM 101.62     LegendNANA
18:00 7.4 0.6 62 LegendMM 10 7 LegendMM 101.62     LegendNANA
19:00 4.7 2.2 84 LegendMM 27 6 LegendMM 101.64     LegendNANA
20:00 3.2 2.2 93 LegendMM 23 4 LegendMM 101.66     LegendNANA
21:00 1.4 0.7 95 LegendMM 9 1 LegendMM 101.69     LegendNANA
22:00 1.0 0.6 97 LegendMM 11 1 LegendMM 101.67     LegendNANA
23:00 0.3 0.0 98 LegendMM 21 3 LegendMM 101.72     LegendNANA

Notes on Data Quality.

Legend

  • E = Estimated
  • M = Missing
  • NA = Not Available*
  • [empty] = Indicates an unobserved value
Date modified: